Other Public Products
Issued by NWS Grand Forks, ND

Home | Current Version | Previous Version | Text Only | Print | Product List | Glossary On
Versions: 1 2 3 4 5 6 7 8 9 10 11 12 13 14 15 16 17 18 19 20 21 22 23 24 25 26 27 28 29 30 31 32 33 34 35 36 37 38 39 40 41 42 43 44 45 46 47 48 49 50
000
FPUS83 KFGF 030931
OPUFGF
PRAIRIE TO PINES WEATHER ROUNDUP
NATIONAL WEATHER SERVICE EASTERN NORTH DAKOTA/GRAND FORKS ND
300 AM CST TUE MAR 03 2015

 **SATELLITE DATA USED TO AUGMENT SKY COVER AT AUTOMATED STATIONS**
 *****  WEATHER ACROSS EASTERN NORTH DAKOTA  *****

CITY           SKY/WX    TMP DP  RH WIND       PRES   REMARKS
GRAND FORKS    FAIR      23  16  74 NW18      29.75R WCI   9
GRAND FORKS AF FAIR      22  14  72 NW17      29.76R WCI   7
GRAND CITY NWS   N/A     21 N/A N/A NW6         N/A  WCI  14
BUXTON         NOT AVBL
DEVILS LAKE    MOCLDY    16   9  73 NW23      29.80R WCI  -2
FARGO          CLOUDY    27  22  81 S12       29.75R WCI  17
WAHPETON ARPT  CLOUDY    27  21  80 S12       29.73S WCI  16
$$

 *****  WEATHER ACROSS CENTRAL AND WESTERN NORTH DAKOTA  *****

CITY           SKY/WX    TMP DP  RH WIND       PRES   REMARKS
JAMESTOWN      CLOUDY    19  13  77 NW23G31   29.77R WCI   2
BISMARCK       CLOUDY    17   9  70 NW25G33   29.89S WCI  -1
MINOT          LGT SNOW   8   1  73 NW30      29.92R WCI -15
MINOT AFB      CLEAR      7   3  83 NW31      29.90R BLWGSNOWWCI -16
GARRISON         N/A     10   2  69 NW28G40   29.92R WCI -12
WILLISTON      PTCLDY     7  -3  64 NW18G24   30.04R WCI -12
DICKINSON      CLOUDY    14   5  67 NW26G37   29.89S WCI  -6
HETTINGER      LGT SNOW  14   8  77 N23G31    29.87R WCI  -5
$$

 *****  OTHER OBSERVATIONS NORTHEAST NORTH DAKOTA  *****

CITY           SKY/WX    TMP DP  RH WIND       PRES   REMARKS
WALHALLA         N/A     18  14  86 NW18G29   29.78R WCI   2
LANGDON        NOT AVBL
CAVALIER       PTSUNNY   19  14  79 NW21G30   29.76R WCI   3
GRAFTON        NOT AVBL
CANDO          CLOUDY    14   7  73 NW16G25   29.83R WCI  -2
FORT TOTTEN      N/A     15   9  76 NW12      29.95S WCI   2
ROLLA          FLURRIES   9   3  78 NW31G39   29.81R WCI -14
RUGBY          FAIR       9   5  85 NW28G36   29.86R WCI -13
 ***** THE ABOVE OBSERVATIONS ARE NON NWS ARE NOT QUALITY
        CONTROLLED AND MAY MIS-REPORT RAIN FOR SNOW...
$$

 *****  OTHER OBSERVATIONS SOUTHEAST NORTH DAKOTA *****

CITY           SKY/WX    TMP DP  RH WIND       PRES   REMARKS
COOPERSTOWN    NOT AVBL
VALLEY CITY    FLURRIES  19  19 100 NW20      29.75S WCI   4
OAKES          FLURRIES  23  19  86 NW29G35   29.74F WCI   6
GWINNER        PTSUNNY   30  25  80 NW13      29.75R WCI  20
SHEYENNE NWR     N/A     26  21  80 NW6       29.95S WCI  19
BUFFALO        NOT AVBL
WYNDMERE         N/A     27  23  86 S8          N/A  WCI  18
 ***** THE ABOVE OBSERVATIONS ARE NON NWS ARE NOT QUALITY
       CONTROLLED AND MAY MIS-REPORT RAIN FOR SNOW...
$$

  *****  WEATHER ACROSS NORTHERN MINNESOTA  *****

CITY           SKY/WX    TMP DP  RH WIND       PRES   REMARKS
FLAG ISLAND    CLOUDY    19  16  86 S10       29.62F WCI   8
WARROAD        CLOUDY    25  19  80 SW15      29.65F WCI  12
ROSEAU         CLOUDY    25  19  80 SW15      29.65F WCI  12
HALLOCK        FAIR      19  14  79 NW16      29.71F WCI   5
THF RVR FALLS  CLOUDY    25  19  80 SW15G21   29.71S WCI  12
HALSTAD          N/A     26  21  83 SW10        N/A  WCI  16
FOSSTON        MOCLDY    23  19  86 SW13      29.71F WCI  11
BAUDETTE       CLOUDY    24  16  71 S12       29.65F WCI  13
WASKISH        FAIR      25  18  74 CALM      29.67F
CROOKSTON      FAIR      25  21  86 W15       29.74R WCI  12
$$
  *****  WEATHER ACROSS CENTRAL AND WEST MINNESOTA  *****

CITY           SKY/WX    TMP DP  RH WIND       PRES   REMARKS
BEMIDJI        FAIR      24  19  80 S8        29.68F WCI  15
PARK RAPIDS    CLOUDY    24  18  77 S14       29.73F WCI  12
WADENA         FLURRIES  21  18  86 S8        29.73F WCI  12
DETROIT LAKES  FAIR      27  23  86 S12       29.72F WCI  16
MOORHEAD       MOCLDY    27  25  93 SW13      29.77R WCI  16
FERGUS FALLS   MOCLDY    25  19  80 S17       29.77F WCI  11
ELBOW LAKE     LGT SNOW  23  22  95 S22       29.73F VSB 3/4 WCI   8
MORRIS MN      LGT SNOW  25  21  86 S15       29.74F VSB 3/4 WCI  12
STAPLES        LGT SNOW  19  18  93 S9        29.75F WCI   9
WHEATON        LGT SNOW  23  21  93 S16       29.75F WCI  10
$$
  *****  WEATHER ELSEWHERE ACROSS MINNESOTA  *****

CITY           SKY/WX    TMP DP  RH WIND       PRES   REMARKS
DULUTH         CLOUDY    20   7  57 S16       29.82F WCI   6
INTRNTL FALLS  CLOUDY    24  11  57 S9        29.69F WCI  14
ELY            CLOUDY    19   7  58 SW10G21   29.76F WCI   8
CLOQUET        LGT SNOW  19  10  68 S10       29.81F WCI   8
BRAINERD       LGT SNOW  20  17  88 S12       29.77F VSB 3/4 WCI   8
HIBBING        CLOUDY    20   7  57 S8        29.75F WCI  10
ALEXANDRIA     LGT SNOW  22  20  92 S15       29.75F VSB 1   WCI   9
SAINT CLOUD    LGT SNOW  20  15  81 SE10      29.84F WCI   9
MINNEAPOLIS    CLOUDY    22  11  62 SE6       29.90F WCI  14
$$

  *****  WEATHER ACROSS SOUTH DAKOTA  *****

CITY           SKY/WX    TMP DP  RH WIND       PRES   REMARKS
SIOUX FALLS    MOCLDY    25  19  78 S7        29.73F WCI  17
BROOKINGS      NOT AVBL
WATERTOWN      LGT SNOW  24  20  84 S7        29.68F FOG     WCI  16
HURON          CLOUDY    28  20  71 SE7       29.69F WCI  21
SISSETON         N/A     27  25  92 S14       29.72F WCI  16
ABERDEEN       SNOW      28  26  92 SW8       29.71R VSB 1/2 WCI  20
MITCHELL       CLOUDY    27  20  75 SE8       29.70F WCI  19
PIERRE         SNOW      25  23  92 N30G40    29.67S VSB 1/2 WCI   8
MOBRIDGE       CLOUDY    20  12  71 N30G39    29.77R WCI   1
RAPID CITY     LGT SNOW  20  17  88 N33G45    29.78R VSB 3/4 WCI   0
$$

  *****  SOME WEATHER IN NEARBY STATES *****

CITY           SKY/WX    TMP DP  RH WIND       PRES   REMARKS
GLASGOW MT     PTCLDY     8  -4  58 NW21G30   30.13S WCI -12
GREAT FALLS MT MOCLDY     5   0  79 N7        30.18R WCI  -7
CHEYENNE WY    CLEAR     37  18  46 W28G37    29.53F
SCOTTSBLUFF NE CLOUDY    29  28  96 NE3       29.62R FOG
OMAHA NE       CLOUDY    32  24  72 S14       29.77F WCI  22
DES MOINES IA  FRZ DRZL  30  22  72 S15       29.83F WCI  19
DAVENPORT IA   LGT SNOW  25  20  81 SE14      29.98F WCI  13
CHICAGO IL     CLOUDY    26  17  68 SE9       30.08F WCI  17
EAU CLAIRE WI  CLOUDY    22  14  71 SE6       29.94F WCI  14
LA CROSSE WI   CLOUDY    26  16  65 SE9       29.98F WCI  17
$$

  *****  SOME NATIONAL WEATHER *****

CITY           SKY/WX    TMP DP  RH WIND       PRES   REMARKS
LA GUARDIA NY  FAIR      26  11  52 NW8       30.39R WCI  18
RALEIGH NC     MOCLDY    40  26  57 E8        30.35F
ATLANTA GA     CLOUDY    53  46  77 CALM      30.19F
NEW ORLEANS LA FOG       66  64  93 S6        30.12F VSB 1/8
OKLAHOMA CITY  CLOUDY    39  36  89 S23G31    29.93F FOG
ALBUQUERQUE NM CLOUDY    43  30  60 W6        29.94F
SALT LAKE CITY MOCLDY    34  32  92 SE8       29.77S
LOS ANGELES CA MOCLDY    52  46  80 NE3       29.97F
BOISE ID       CLOUDY    35  25  66 NW15G22   29.87R
SEATTLE WA     CLEAR     41  31  67 CALM      30.17R
$$

*** WEATHER ACROSS MANITOBA...SASKATCHEWAN AND ONTARIO ***
                ***ONTARIO***

CITY           SKY/WX    TMP DP  RH WIND       PRES   REMARKS
GERALDTON      FLURRIES  10   7  85 S8        29.83F WCI  -1
THUNDER BAY    CLOUDY    14  10  85 VRB2      29.87F
SIOUX LOOKOUT  FLURRIES  21   9  58 S13       29.64F WCI   9
TORONTO        PTCLDY    10   5  79 NW3       30.33F
BIG TROUT LK   CLOUDY    10   1  67 SE5       29.55F WCI   2
PICKLE LAKE    NOT AVBL
DRYDEN         CLOUDY    21  12  68 S15       29.63F WCI   8
KENORA         CLOUDY    21  14  73 S10G18    29.61F WCI  10
$$
                *** MANITOBA***

CITY           SKY/WX    TMP DP  RH WIND       PRES   REMARKS
BRANDON        CLEAR      7   0  72 NW25G32   29.85R WCI -15
DAUPHIN        LGT SNOW   9   0  66 NW16G24   29.85R WCI  -9
ISLAND LAKE    LGT SNOW  18  16  93 S3        29.46F
PILOT MOUND      N/A     10   7  85 NW25G32     N/A  WCI -10
THE PAS        PTCLDY    -2  -8  78 NW17      29.87R WCI -24
THOMPSON       NOT AVBL
WINNIPEG       PTCLDY    12   7  79 NW23G30   29.74R WCI  -7
LYNN LAKE      FLURRIES -15 -22  70 NW18G25   29.82F WCI -41
CHURCHILL      MOCLDY    -8 -13  77 NE16      29.83S WCI -30
GILLAM         SNOW       3  -2  78 N18       29.55R VSB 1/4 WCI -17
$$
                ***SASKATCHEWAN***

CITY           SKY/WX    TMP DP  RH WIND       PRES   REMARKS
ESTEVAN        PTCLDY     1  -4  78 NW22      29.97F WCI -21
KINDERSLEY     MOCLDY    -2  -9  71 NW12G17   30.18R WCI -20
LLOYDMINSTER   CLEAR     -6 -13  71 NW14      30.18S WCI -26
PRINCE ALBERT  FLURRIES  -6 -15  65 NW14      30.08R WCI -26
REGINA         PTCLDY    -2  -8  78 NW21      30.05R WCI -25



USA.gov is the U.S. government's official web portal to all federal, state and local government web resources and services.